Location: Bronschhofen
(47.4788°N, 9.0353°E)
Time: 19:31:58
(UTC+00:00)

Cosmos 1674 Rocket - Pass Details

Date: 20 May 2022
Orbit: 603 x 629 km, 82.5° (Epoch: 01 July)

Event Time Altitude Azimuth Distance (km) Brightness Sun altitude
Exits shadow 00:06:36 35° 121° (ESE) 998 4.4 -21.8°
Maximum altitude 00:07:29 39° 92° (E) 921 4.4 -21.8°
Drops below altitude 10° 00:11:33 10° 24° (NNE) 1,970 7.2 -21.6°
Sets 00:13:51 0° 17° (NNE) 2,876 8.5 -21.5°
